Dewpoint
54 56 56 56 54 53 52 51 51 50 50 49 50 52 52 52 53 53 52 53 54 53 54 55 54 53 54 55 56 55 55 55 52 51 51 51 51 50 49 48 48 47 45
54 54 55 55 56 55 54 53 52 51 50 49 50 51 52 52 52 52 52 51 52 53 53 54 54 55 54 54 54 54 54 55 53 51 52 50 51 52 50 46 46 46 43
55 54 54 54 55 56 55 55 54 52 51 50 50 50 50 50 50 51 51 51 51 51 52 53 53 54 54 55 55 54 55 54 54 53 52 51 51 49 46 44 44 43 42
55 55 54 53 54 55 57 56 56 55 53 51 50 50 49 49 49 50 50 51 51 50 51 51 53 54 54 54 54 55 55 54 53 53 52 51 46 46 47 45 42 41 40
52 55 55 55 55 55 54 55 56 56 55 53 51 50 49 48 47 49 50 50 51 50 51 51 52 52 49 51 54 54 55 54 53 51 51 48 45 40 44 45 44 43 39
52 51 54 56 56 55 55 55 55 56 57 55 54 53 51 50 45 44 47 50 50 50 51 52 53 48 48 45 46 47 52 53 52 51 50 48 45 46 47 44 41 34 35
53 52 52 54 55 56 56 56 55 55 55 57 56 56 55 54 46 44 43 52 52 52 52 52 52 53 48 51 44 42 39 37 37 49 49 49 47 42 37 34 33 33 32
55 54 53 52 54 55 55 55 55 56 55 55 55 56 55 55 45 44 42 50 52 52 52 52 52 50 49 48 43 38 34 34 34 35 35 34 35 36 36 35 34 33 33
53 53 54 55 54 54 54 55 55 55 55 55 55 55 55 55 45 44 43 50 51 52 46 42 49 47 41 42 38 33 31 30 34 35 34 34 34 35 35 33 31 31 29
50 50 50 48 55 55 55 54 55 55 54 54 55 55 52 55 44 44 44 52 50 37 34 35 35 37 36 36 35 32 29 28 29 29 28 30 31 31 31 32 32 29 29
45 44 43 43 45 48 53 55 55 55 55 51 43 37 37 37 39 39 41 43 43 34 32 31 33 34 34 34 32 30 28 28 28 28 27 28 29 29 29 29 30 29 27
40 38 37 37 37 40 42 45 46 48 44 37 35 33 33 34 35 35 35 35 35 33 31 31 32 32 32 30 29 30 30 29 28 28 27 27 27 26 27 25 25 23 23
36 35 33 32 31 33 35 36 38 40 40 38 37 33 32 32 32 32 32 32 31 30 30 31 31 31 30 29 30 29 28 28 27 27 25 25 26 26 27 27 28 28 27
34 32 31 30 29 29 30 31 30 32 35 34 31 29 28 29 29 29 29 28 28 26 25 26 27 27 27 27 26 26 27 27 26 24 24 25 27 26 25 25 23 22 21
32 32 30 29 28 28 28 29 29 30 32 30 28 28 27 27 28 28 26 26 25 26 25 26 25 26 25 25 25 25 25 25 23 23 22 22 22 22 20 20 19 18 17
30 30 30 28 28 27 26 27 30 30 31 31 30 29 29 30 30 30 30 30 30 29 26 25 25 25 23 23 22 21 21 22 22 21 20 19 18 17 16 16 16 15 14
28 28 27 26 26 26 26 25 23 27 30 30 31 31 31 31 31 31 30 29 29 27 24 23 22 22 22 21 20 20 18 18 17 16 16 16 15 15 14 13 12 12 10
27 27 26 26 26 25 25 25 24 23 22 23 28 30 30 29 29 28 28 25 23 23 22 21 20 20 19 18 18 17 16 16 16 15 13 11 11 11 10 9 9 8 7
28 27 27 26 26 25 25 24 24 23 23 22 22 21 23 24 24 24 23 20 19 18 18 18 18 18 17 16 16 14 13 11 10 9 9 8 5 8 6 7 6 4 4
25 25 24 23 23 22 21 20 19 19 19 19 18 18 19 17 16 15 16 17 17 16 16 15 14 13 13 12 11 11 10 9 8 8 4 1 -0 3 2 2 2 2 5
22 22 22 22 21 20 19 19 18 18 17 16 16 17 17 14 13 13 12 12 12 12 13 12 11 10 10 8 8 6 5 5 5 4 4 3 -6 -3 1 0 -2 2 4
20 20 19 19 19 18 17 17 16 15 15 14 14 15 15 14 12 11 10 9 9 10 9 9 7 6 7 7 5 3 3 -0 -2 -5 -5 -5 -3 -3 -3 -5 -6 -8 -2
18 18 18 17 17 17 16 16 15 14 13 12 11 10 10 9 8 7 7 8 6 5 7 5 3 2 2 1 1 3 0 -2 -6 -10 -12 -12 -7 -8 -13 -10 -8 -6 -5
17 16 15 14 13 12 12 12 12 10 10 8 7 8 8 6 4 2 1 1 2 -1 2 0 1 -0 -0 -5 -5 -1 -3 -11 -8 -11 -16 -17 -12 -5 -10 -7 -5 -7 -1
13 12 12 12 11 10 9 9 8 7 6 6 6 6 5 5 2 -2 -6 -5 -1 1 3 -1 -4 -6 -9 -6 -8 -9 -11 -11 -16 -13 -15 -14 -15 -16 -12 -4 -2 -4 -8
10 9 8 8 7 6 5 4 3 2 -1 2 3 -6 -6 2 -2 -12 -10 -7 -4 -4 -7 -8 -7 -8 -6 -6 -7 -9 -12 -9 -11 -9 -13 -9 -10 -10 -11 -11 -8 -6 -2
Lifted_Index
3 3 2 2 2 2 2 2 2 3 4 4 5 6 5 5 5 5 5 4 4 4 3 3 3 3 3 2 2 2 2 2 2 2 2 2 2 2 2 3 3 3 3
2 2 2 2 2 2 2 2 2 2 3 4 4 5 5 5 5 5 5 5 4 4 3 3 3 3 2 2 2 2 2 2 2 2 2 2 2 2 2 3 3 3 3
1 1 2 2 2 1 1 1 2 2 2 2 3 3 4 5 5 5 5 5 4 4 3 3 2 2 2 2 1 1 1 1 1 2 2 2 2 2 2 3 3 3 3
-0 0 1 1 1 1 1 1 1 1 2 2 2 2 2 3 4 4 4 4 4 4 3 3 3 2 2 1 1 1 0 0 1 1 1 2 2 2 3 3 2 3 3
-1 -1 -1 -0 -0 0 1 1 1 1 1 1 1 1 1 2 2 3 3 3 3 3 3 3 3 2 1 1 1 0 -0 0 0 1 1 2 2 2 2 2 2 2 3
-2 -2 -2 -2 -1 -1 -1 -0 0 0 0 0 0 0 0 0 0 1 1 2 2 2 2 2 2 1 1 0 -0 -0 -0 -0 0 1 1 2 2 2 2 2 2 2 3
-3 -3 -3 -2 -2 -2 -1 -1 -1 -1 -1 -1 -1 -1 -1 -0 -0 -0 0 0 1 1 1 1 1 1 0 -0 -1 -1 -0 -0 -0 0 1 2 2 3 3 3 3 4 4
-3 -3 -3 -3 -2 -2 -2 -2 -2 -1 -1 -1 -1 -1 -1 -1 -1 -1 -1 -0 0 0 0 0 0 0 -0 -0 -1 -0 -0 -0 0 1 1 2 4 5 5 6 6 7 7
-1 -2 -3 -3 -3 -2 -2 -2 -2 -2 -2 -2 -2 -1 -1 -1 -1 -1 -1 -0 -0 -0 -0 -0 -0 -0 -0 -0 0 0 0 1 1 2 3 5 7 8 9 9 9 9 9
1 -0 -1 -2 -2 -2 -2 -2 -2 -2 -2 -2 -2 -2 -1 -1 -1 -1 -1 -1 -1 -0 -0 -0 -0 -0 0 0 0 1 1 2 3 5 7 9 11 12 13 13 12 11 11
2 1 1 0 -1 -2 -2 -3 -3 -2 -2 -2 -2 -2 -1 -1 -1 -1 -1 -1 -1 -0 -0 0 0 0 0 1 1 2 3 5 7 9 11 13 14 14 15 16 16 15 14
2 2 2 2 1 -1 -2 -2 -3 -3 -2 -2 -2 -2 -2 -1 -1 -1 -1 -1 -1 -0 1 1 2 2 3 4 5 7 8 10 11 12 13 14 15 16 17 18 19 19 19
3 3 2 2 2 1 -1 -2 -2 -3 -3 -3 -2 -2 -2 -1 -1 -1 -1 -1 -0 1 3 6 8 9 10 11 12 13 14 15 15 14 15 16 17 18 19 20 21 21 21
3 3 3 3 2 2 1 0 -1 -1 -1 -2 -2 -1 -0 1 3 3 3 3 3 5 8 12 14 16 16 17 17 18 18 18 17 17 17 18 19 20 20 21 21 21 20
2 2 3 3 3 3 3 3 3 3 3 3 3 3 5 8 9 10 10 10 10 12 14 15 17 18 18 18 18 19 20 19 19 19 19 19 20 20 20 21 21 21 21
3 3 3 3 4 4 4 4 5 7 9 10 11 11 12 14 16 17 17 17 17 17 17 17 17 17 18 18 18 19 20 20 20 20 20 20 20 21 21 22 23 23 23
4 4 4 5 5 6 6 6 7 9 12 14 16 17 17 18 18 19 19 19 19 19 18 17 18 18 18 19 19 19 20 21 22 22 22 22 22 23 23 24 24 25 25
7 7 7 7 8 8 9 10 10 11 12 14 17 19 19 19 19 19 19 18 18 18 17 18 18 19 20 20 21 21 22 22 23 24 24 24 25 25 25 25 26 26 26
10 10 10 10 11 11 12 13 13 13 14 15 17 18 19 19 19 19 19 18 17 17 18 18 19 20 21 22 22 23 23 24 25 25 26 26 26 26 26 26 26 26 26
12 12 12 12 12 13 13 14 15 15 15 16 17 18 19 19 18 18 19 18 18 19 20 20 21 22 23 24 24 25 25 25 26 26 26 27 27 26 26 26 26 26 26
14 14 14 14 14 14 14 15 15 15 16 16 17 19 20 19 19 19 20 20 21 22 22 23 24 25 25 26 26 26 26 26 26 27 27 27 27 27 27 27 27 27 27
15 15 15 15 15 15 16 16 16 16 16 17 18 20 21 21 21 21 22 23 24 25 25 26 26 26 27 27 27 27 27 27 27 27 27 27 27 27 27 27 26 26 26
15 15 16 16 16 17 17 17 17 18 18 19 19 20 21 22 23 24 24 26 26 27 27 27 27 27 27 28 28 27 27 27 28 28 27 27 26 26 25 25 24 23 23
17 17 17 17 18 18 18 18 19 19 20 21 22 22 23 24 24 25 26 26 27 27 27 27 27 27 27 28 28 28 28 28 28 27 26 25 24 24 23 22 22 21 20
20 19 19 19 20 20 20 20 21 21 22 22 23 23 24 24 24 25 26 26 26 26 27 27 27 27 27 27 27 27 27 26 26 25 24 23 22 21 21 20 19 18 18
21 21 21 21 21 21 21 22 22 22 23 23 23 23 24 24 24 25 25 26 26 26 26 27 27 27 26 26 26 25 25 24 24 23 23 22 21 20 20 19 18 16 16